This is the latest recevied weather packets stored in our database for station/object DK6SC-10. If no packets are shown the sender has not sent any weather packets the latest 1 day(s).
| Time | Temp. | Humidity | Pressure | Rain* | Wind** | Luminosity | Snow |
|---|---|---|---|---|---|---|---|
| 1778045568 | 11.67° C | 87% | 971.4 hPa | - | - | - | - |
| 1778044668 | 11.11° C | 90% | 971.4 hPa | - | - | - | - |
| 1778043769 | 10.56° C | 92% | 971.5 hPa | - | - | - | - |
| 1778042868 | 9.44° C | 94% | 971.5 hPa | - | - | - | - |
| 1778041968 | 9.44° C | 95% | 971.5 hPa | - | - | - | - |
| 1778041068 | 8.89° C | 94% | 971.6 hPa | - | - | - | - |
| 1778040168 | 8.33° C | 95% | 971.6 hPa | - | - | - | - |
| 1778039268 | 8.33° C | 95% | 971.8 hPa | - | - | - | - |
| 1778037467 | 8.33° C | 94% | 971.7 hPa | - | - | - | - |
| 1778035667 | 9.44° C | 94% | 971.6 hPa | - | - | - | - |
| 1778032067 | 9.44° C | 95% | 972.1 hPa | - | - | - | - |
| 1778031167 | 9.44° C | 95% | 972.1 hPa | - | - | - | - |
| 1778030267 | 9.44° C | 94% | 972.2 hPa | - | - | - | - |
| 1778029367 | 9.44° C | 95% | 972.2 hPa | - | - | - | - |
| 1778028467 | 9.44° C | 94% | 972.2 hPa | - | - | - | - |
| 1778027567 | 10° C | 94% | 972.3 hPa | - | - | - | - |
| 1778026667 | 10° C | 94% | 972.5 hPa | - | - | - | - |
| 1778025767 | 10.56° C | 93% | 972.7 hPa | - | - | - | - |
| 1778015865 | 11.67° C | 95% | 972.9 hPa | - | - | - | - |
| 1778014965 | 11.11° C | 96% | 972.9 hPa | - | - | - | - |
| 1778014065 | 11.67° C | 96% | 972.7 hPa | - | - | - | - |
| 1778013165 | 11.67° C | 95% | 972.7 hPa | - | - | - | - |
| 1778012265 | 12.22° C | 95% | 972.6 hPa | - | - | - | - |
* Rain since midnight (hover to see other rain measurements)
** Current wind speed in m/s (hover to see current wind gust speed)